AXB2733 VAAH-VABB

Flight info

Callsign AXB2733
Flight time N/A
Altitude 31000
Route BVR1A BVR R458 BOFIN POKON2A
Aircraft B738/M-SDE2E3FGHIRWXY/LB1

Departure

Time 2026-05-08 05:32
Airport Sardar Vallabh Patel International Airport (VAAH)

Arrival

Time N/A
Airport Chhatrapati Shivaji Maharaj International Airport (VABB)
Time Latitude Longitude Altitude Speed Heading
2026-05-08 05:18 23.07345 72.61611 188 ft 2 kts 45°
2026-05-08 05:18 23.07334 72.61600 188 ft 2 kts 44°
2026-05-08 05:18 23.07323 72.61588 188 ft 2 kts 44°
2026-05-08 05:19 23.07313 72.61575 189 ft 2 kts 71°
2026-05-08 05:19 23.07312 72.61559 189 ft 2 kts 101°
2026-05-08 05:19 23.07317 72.61546 189 ft 0 kts 130°
2026-05-08 05:19 23.07322 72.61540 189 ft 1 kts 134°
2026-05-08 05:20 23.07323 72.61540 189 ft 0 kts 134°
2026-05-08 05:21 23.07322 72.61540 189 ft 0 kts 134°
2026-05-08 05:21 23.07320 72.61543 189 ft 1 kts 134°
2026-05-08 05:21 23.07299 72.61566 189 ft 6 kts 134°
2026-05-08 05:21 23.07264 72.61606 189 ft 8 kts 134°
2026-05-08 05:22 23.07213 72.61659 189 ft 11 kts 142°
2026-05-08 05:22 23.07137 72.61687 190 ft 12 kts 168°
2026-05-08 05:22 23.07063 72.61742 190 ft 14 kts 138°
2026-05-08 05:22 23.06992 72.61819 190 ft 13 kts 131°
2026-05-08 05:23 23.06921 72.61897 190 ft 15 kts 135°
2026-05-08 05:23 23.06841 72.61983 190 ft 17 kts 135°
2026-05-08 05:23 23.06754 72.62080 190 ft 18 kts 131°
2026-05-08 05:23 23.06779 72.62186 190 ft 16 kts 43°
2026-05-08 05:24 23.06864 72.62276 190 ft 18 kts 44°
2026-05-08 05:24 23.06960 72.62378 190 ft 20 kts 44°
2026-05-08 05:24 23.07073 72.62495 190 ft 23 kts 44°
2026-05-08 05:24 23.07190 72.62623 187 ft 24 kts 46°
2026-05-08 05:25 23.07316 72.62757 187 ft 26 kts 44°
2026-05-08 05:25 23.07449 72.62899 187 ft 25 kts 46°
2026-05-08 05:25 23.07578 72.63039 187 ft 26 kts 44°
2026-05-08 05:25 23.07673 72.63176 187 ft 20 kts 73°
2026-05-08 05:26 23.07687 72.63229 188 ft 0 kts 75°
2026-05-08 05:28 23.07690 72.63241 188 ft 6 kts 75°
2026-05-08 05:28 23.07706 72.63305 189 ft 12 kts 75°
2026-05-08 05:28 23.07738 72.63425 190 ft 19 kts 71°
2026-05-08 05:29 23.07827 72.63551 191 ft 22 kts 44°
2026-05-08 05:29 23.07956 72.63686 193 ft 29 kts 44°
2026-05-08 05:29 23.08118 72.63861 193 ft 36 kts 45°
2026-05-08 05:29 23.08314 72.64071 191 ft 41 kts 44°
2026-05-08 05:30 23.08501 72.64271 193 ft 35 kts 44°
2026-05-08 05:30 23.08666 72.64444 195 ft 30 kts 44°
2026-05-08 05:30 23.08794 72.64560 197 ft 15 kts 27°
2026-05-08 05:30 23.08856 72.64603 196 ft 7 kts 90°
2026-05-08 05:31 23.08823 72.64616 196 ft 3 kts 201°
2026-05-08 05:31 23.08804 72.64600 197 ft 2 kts 219°
2026-05-08 05:31 23.08769 72.64567 197 ft 33 kts 222°
2026-05-08 05:31 23.08309 72.64066 192 ft 148 kts 225°
2026-05-08 05:32 23.07376 72.63068 284 ft 223 kts 225°
2026-05-08 05:32 23.06253 72.61851 1363 ft 233 kts 226°
2026-05-08 05:32 23.05153 72.60641 2640 ft 235 kts 226°
2026-05-08 05:32 23.03942 72.59328 3290 ft 265 kts 226°
2026-05-08 05:33 23.02582 72.57858 4141 ft 283 kts 226°
2026-05-08 05:33 23.01248 72.56435 5734 ft 275 kts 227°
2026-05-08 05:33 22.99919 72.55022 7162 ft 273 kts 227°
2026-05-08 05:33 22.98577 72.53587 8359 ft 282 kts 227°
2026-05-08 05:34 22.97170 72.52074 9564 ft 291 kts 226°
2026-05-08 05:34 22.95732 72.50521 10763 ft 298 kts 226°
2026-05-08 05:34 22.94271 72.48944 11955 ft 304 kts 224°
2026-05-08 05:34 22.92570 72.47644 13097 ft 308 kts 201°
2026-05-08 05:35 22.90527 72.47104 14300 ft 309 kts 188°
2026-05-08 05:35 22.88449 72.46743 15338 ft 315 kts 190°
2026-05-08 05:35 22.86333 72.46279 16306 ft 322 kts 192°
2026-05-08 05:35 22.84136 72.45760 16814 ft 326 kts 192°
2026-05-08 05:36 22.81938 72.45229 17314 ft 325 kts 193°
2026-05-08 05:36 22.79765 72.44700 17808 ft 328 kts 193°
2026-05-08 05:36 22.77613 72.44172 18293 ft 331 kts 193°
2026-05-08 05:36 22.75349 72.43614 18799 ft 334 kts 193°
2026-05-08 05:37 22.73080 72.43054 19302 ft 336 kts 193°
2026-05-08 05:37 22.70831 72.42498 19796 ft 339 kts 193°
2026-05-08 05:37 22.68510 72.41924 20303 ft 341 kts 193°
2026-05-08 05:37 22.66218 72.41357 20799 ft 344 kts 193°
2026-05-08 05:38 22.63878 72.40778 21302 ft 346 kts 194°
2026-05-08 05:38 22.61547 72.40202 21800 ft 349 kts 194°
2026-05-08 05:38 22.59202 72.39623 22297 ft 351 kts 194°
2026-05-08 05:38 22.56816 72.39033 22799 ft 354 kts 194°
2026-05-08 05:39 22.54418 72.38440 23300 ft 356 kts 194°
2026-05-08 05:39 22.52030 72.37850 23795 ft 359 kts 194°
2026-05-08 05:39 22.49593 72.37248 24328 ft 360 kts 194°
2026-05-08 05:39 22.47140 72.36643 24963 ft 363 kts 194°
2026-05-08 05:40 22.44772 72.36058 25565 ft 371 kts 194°
2026-05-08 05:40 22.42334 72.35457 26170 ft 376 kts 195°
2026-05-08 05:40 22.40047 72.34893 26732 ft 376 kts 194°
2026-05-08 05:41 22.36555 72.34033 27592 ft 374 kts 194°
2026-05-08 05:41 22.35238 72.33709 27919 ft 373 kts 194°
2026-05-08 05:42 22.33505 72.33282 28349 ft 372 kts 194°
2026-05-08 05:42 22.31553 72.32803 28836 ft 370 kts 195°
2026-05-08 05:42 22.29454 72.32287 29362 ft 367 kts 195°
2026-05-08 05:42 22.27206 72.31735 29930 ft 365 kts 195°
2026-05-08 05:43 22.24900 72.31168 30518 ft 362 kts 195°
2026-05-08 05:43 22.22405 72.30555 30870 ft 365 kts 195°
2026-05-08 05:43 22.19973 72.29958 30856 ft 362 kts 195°
2026-05-08 05:44 22.15164 72.28778 30858 ft 357 kts 195°
2026-05-08 05:45 22.05629 72.26438 30859 ft 358 kts 195°
2026-05-08 05:45 22.00807 72.25257 30868 ft 357 kts 195°
2026-05-08 05:46 21.96045 72.24089 30875 ft 357 kts 195°
2026-05-08 05:46 21.91278 72.22923 30883 ft 357 kts 195°
2026-05-08 05:47 21.86935 72.21862 30885 ft 357 kts 195°
2026-05-08 05:47 21.82163 72.20696 30885 ft 357 kts 195°
2026-05-08 05:48 21.77576 72.19595 30884 ft 358 kts 192°
2026-05-08 05:48 21.72650 72.19598 30885 ft 363 kts 171°
2026-05-08 05:49 21.67755 72.20882 30858 ft 365 kts 168°
2026-05-08 05:49 21.62804 72.22019 30326 ft 372 kts 175°
2026-05-08 05:49 21.60275 72.22417 29898 ft 367 kts 168°
2026-05-08 05:50 21.57912 72.23130 30104 ft 351 kts 165°
2026-05-08 05:50 21.55551 72.23872 30130 ft 363 kts 166°
2026-05-08 05:50 21.53048 72.24586 30128 ft 385 kts 167°
2026-05-08 05:50 21.50425 72.25301 30121 ft 406 kts 167°
2026-05-08 05:51 21.47598 72.26061 30116 ft 424 kts 167°
2026-05-08 05:51 21.41930 72.27569 30114 ft 425 kts 168°
2026-05-08 05:52 21.36173 72.29085 30114 ft 424 kts 168°
2026-05-08 05:52 21.30487 72.30573 30116 ft 424 kts 168°
2026-05-08 05:53 21.24782 72.32061 30116 ft 424 kts 168°
2026-05-08 05:53 21.19094 72.33541 30116 ft 424 kts 168°
2026-05-08 05:54 21.13403 72.35019 30116 ft 424 kts 168°
2026-05-08 05:54 21.07686 72.36503 30116 ft 421 kts 168°
2026-05-08 05:55 21.02045 72.37966 30116 ft 415 kts 167°
2026-05-08 05:55 20.96541 72.39363 30112 ft 403 kts 167°
2026-05-08 05:56 20.91061 72.40752 30118 ft 409 kts 167°
2026-05-08 05:56 20.85921 72.42082 30116 ft 408 kts 166°
2026-05-08 05:57 20.80429 72.43512 30116 ft 408 kts 166°
2026-05-08 05:57 20.75033 72.44880 30115 ft 408 kts 169°
2026-05-08 05:58 20.69402 72.44950 30114 ft 407 kts 192°
2026-05-08 05:58 20.64117 72.42957 30119 ft 408 kts 201°
2026-05-08 05:59 20.58833 72.40807 30116 ft 407 kts 200°
2026-05-08 05:59 20.53580 72.38672 30116 ft 407 kts 200°
2026-05-08 06:00 20.48290 72.36520 30116 ft 407 kts 200°
2026-05-08 06:00 20.43041 72.34384 30116 ft 407 kts 200°
2026-05-08 06:01 20.37775 72.32243 30119 ft 407 kts 200°
2026-05-08 06:01 20.32545 72.30117 30117 ft 407 kts 200°
2026-05-08 06:02 20.27393 72.28024 30116 ft 407 kts 200°
2026-05-08 06:02 20.22117 72.25883 30117 ft 407 kts 200°
2026-05-08 06:03 20.16848 72.23745 30123 ft 416 kts 200°
2026-05-08 06:03 20.14114 72.22636 30123 ft 431 kts 200°
2026-05-08 06:03 20.11276 72.21487 30117 ft 439 kts 200°
2026-05-08 06:04 20.05595 72.19185 30115 ft 437 kts 200°
2026-05-08 06:04 19.99921 72.16888 30117 ft 436 kts 200°
2026-05-08 06:05 19.94284 72.14609 30116 ft 436 kts 200°
2026-05-08 06:05 19.88657 72.12334 30117 ft 436 kts 200°
2026-05-08 06:06 19.82887 72.10280 29817 ft 440 kts 191°
2026-05-08 06:06 19.79889 72.09986 29439 ft 435 kts 179°
2026-05-08 06:06 19.76938 72.10406 29068 ft 430 kts 166°
2026-05-08 06:06 19.74143 72.11474 28694 ft 428 kts 155°
2026-05-08 06:07 19.71624 72.13083 28320 ft 426 kts 143°
2026-05-08 06:07 19.69376 72.15111 27950 ft 424 kts 138°
2026-05-08 06:07 19.67205 72.17211 27501 ft 423 kts 138°
2026-05-08 06:07 19.65056 72.19258 27004 ft 420 kts 139°
2026-05-08 06:08 19.62900 72.21301 26446 ft 417 kts 138°
2026-05-08 06:08 19.60738 72.23353 25812 ft 413 kts 138°
2026-05-08 06:08 19.58622 72.25361 25186 ft 408 kts 138°
2026-05-08 06:08 19.56527 72.27347 24486 ft 405 kts 138°
2026-05-08 06:09 19.54473 72.29294 23743 ft 401 kts 138°
2026-05-08 06:09 19.52422 72.31237 22993 ft 395 kts 138°
2026-05-08 06:09 19.50391 72.33161 22241 ft 390 kts 138°
2026-05-08 06:09 19.48388 72.35059 21491 ft 386 kts 138°
2026-05-08 06:10 19.46409 72.36932 20742 ft 382 kts 138°
2026-05-08 06:10 19.44442 72.38793 19990 ft 378 kts 138°
2026-05-08 06:10 19.42493 72.40636 19238 ft 375 kts 138°
2026-05-08 06:10 19.40569 72.42456 18488 ft 371 kts 138°
2026-05-08 06:11 19.38681 72.44241 17745 ft 367 kts 138°
2026-05-08 06:11 19.36782 72.46036 16990 ft 364 kts 137°
2026-05-08 06:11 19.34962 72.47756 16259 ft 360 kts 137°
2026-05-08 06:11 19.33138 72.49479 15519 ft 357 kts 137°
2026-05-08 06:12 19.31295 72.51219 14695 ft 356 kts 137°
2026-05-08 06:12 19.29495 72.52919 13886 ft 355 kts 137°
2026-05-08 06:12 19.27688 72.54623 13107 ft 352 kts 137°
2026-05-08 06:12 19.25865 72.56344 12351 ft 348 kts 137°
2026-05-08 06:13 19.24076 72.58031 11601 ft 345 kts 137°
2026-05-08 06:13 19.22514 72.59877 10850 ft 341 kts 122°
2026-05-08 06:13 19.21645 72.62154 10103 ft 336 kts 99°
2026-05-08 06:13 19.21530 72.64578 9374 ft 333 kts 89°
2026-05-08 06:14 19.21544 72.66882 8680 ft 330 kts 89°
2026-05-08 06:14 19.21534 72.69079 8268 ft 321 kts 90°
2026-05-08 06:14 19.21522 72.71275 7955 ft 320 kts 89°
2026-05-08 06:15 19.21499 72.75537 7861 ft 321 kts 89°
2026-05-08 06:15 19.21486 72.77639 7857 ft 321 kts 89°
2026-05-08 06:15 19.21480 72.78695 7857 ft 321 kts 89°
2026-05-08 06:15 19.21465 72.80994 7856 ft 321 kts 89°
2026-05-08 06:16 19.21450 72.83338 7857 ft 321 kts 89°
2026-05-08 06:16 19.21435 72.85674 7857 ft 321 kts 89°
2026-05-08 06:16 19.21419 72.87915 7858 ft 321 kts 89°
2026-05-08 06:16 19.21403 72.90294 7628 ft 325 kts 89°
2026-05-08 06:17 19.21369 72.94967 6775 ft 317 kts 89°
2026-05-08 06:17 19.21353 72.97264 6355 ft 316 kts 89°
2026-05-08 06:17 19.21336 72.99519 5942 ft 315 kts 89°
2026-05-08 06:18 19.21319 73.01781 5501 ft 314 kts 89°
2026-05-08 06:18 19.21302 73.04039 4957 ft 313 kts 89°
2026-05-08 06:18 19.21285 73.06244 4427 ft 310 kts 89°
2026-05-08 06:18 19.21267 73.08513 4015 ft 305 kts 89°
2026-05-08 06:19 19.21249 73.10740 3987 ft 302 kts 89°
2026-05-08 06:19 19.21231 73.12879 3982 ft 281 kts 89°
2026-05-08 06:19 19.21222 73.14883 3987 ft 260 kts 88°
2026-05-08 06:19 19.21242 73.16727 3992 ft 247 kts 88°
2026-05-08 06:20 19.21263 73.18558 3997 ft 253 kts 88°
2026-05-08 06:20 19.21282 73.20428 3994 ft 254 kts 88°
2026-05-08 06:20 19.21300 73.22276 3993 ft 254 kts 88°
2026-05-08 06:20 19.21318 73.24131 3993 ft 254 kts 88°
2026-05-08 06:21 19.21336 73.25974 3993 ft 254 kts 88°
2026-05-08 06:21 19.21354 73.27840 3993 ft 254 kts 88°
2026-05-08 06:21 19.21372 73.29694 3993 ft 254 kts 88°
2026-05-08 06:21 19.21389 73.31543 3993 ft 254 kts 88°
2026-05-08 06:22 19.21406 73.33431 3993 ft 254 kts 88°
2026-05-08 06:22 19.21423 73.35283 3993 ft 254 kts 88°
2026-05-08 06:22 19.21440 73.37126 3993 ft 254 kts 88°
2026-05-08 06:22 19.21456 73.38984 3993 ft 254 kts 88°
2026-05-08 06:23 19.21473 73.40846 3993 ft 254 kts 88°
2026-05-08 06:23 19.21489 73.42690 3993 ft 254 kts 88°
2026-05-08 06:23 19.21504 73.44500 3984 ft 242 kts 88°
2026-05-08 06:23 19.21518 73.46214 3884 ft 230 kts 88°
2026-05-08 06:24 19.21526 73.47853 3759 ft 223 kts 91°
2026-05-08 06:24 19.21091 73.49391 3656 ft 224 kts 126°
2026-05-08 06:24 19.19863 73.50345 3563 ft 225 kts 162°
2026-05-08 06:24 19.18351 73.50522 3477 ft 225 kts 185°
2026-05-08 06:25 19.16874 73.50130 3259 ft 226 kts 210°
2026-05-08 06:25 19.15807 73.48988 2903 ft 222 kts 246°
2026-05-08 06:25 19.15463 73.47477 2893 ft 210 kts 270°
2026-05-08 06:25 19.15710 73.45968 2892 ft 210 kts 295°
2026-05-08 06:26 19.16622 73.44788 2890 ft 210 kts 326°
2026-05-08 06:26 19.17878 73.43983 2899 ft 210 kts 324°
2026-05-08 06:26 19.18819 73.42853 2879 ft 210 kts 292°
2026-05-08 06:26 19.19001 73.41322 2899 ft 213 kts 265°
2026-05-08 06:27 19.18685 73.39806 2898 ft 215 kts 253°
2026-05-08 06:27 19.18213 73.38365 2893 ft 215 kts 252°
2026-05-08 06:27 19.17687 73.36847 2891 ft 215 kts 251°
2026-05-08 06:27 19.17166 73.35389 2892 ft 215 kts 251°
2026-05-08 06:28 19.16625 73.33896 2892 ft 215 kts 250°
2026-05-08 06:28 19.16103 73.32463 2887 ft 207 kts 250°
2026-05-08 06:28 19.15602 73.31094 2882 ft 193 kts 251°
2026-05-08 06:28 19.15125 73.29786 2892 ft 191 kts 251°
2026-05-08 06:29 19.14647 73.28477 2895 ft 192 kts 251°
2026-05-08 06:29 19.14172 73.27178 2894 ft 192 kts 251°
2026-05-08 06:29 19.13692 73.25865 2893 ft 192 kts 251°
2026-05-08 06:29 19.13215 73.24563 2893 ft 192 kts 251°
2026-05-08 06:30 19.12762 73.23261 2891 ft 192 kts 258°
2026-05-08 06:30 19.12871 73.21936 2885 ft 187 kts 301°
2026-05-08 06:30 19.13869 73.21088 2899 ft 187 kts 342°
2026-05-08 06:30 19.15090 73.20757 2908 ft 188 kts 344°
2026-05-08 06:31 19.16355 73.20397 2893 ft 188 kts 344°
2026-05-08 06:31 19.17504 73.20073 2891 ft 188 kts 344°
2026-05-08 06:31 19.18593 73.19766 2892 ft 188 kts 344°
2026-05-08 06:31 19.19853 73.19411 2892 ft 188 kts 344°
2026-05-08 06:32 19.21106 73.19057 2892 ft 188 kts 344°
2026-05-08 06:32 19.22368 73.18700 2892 ft 188 kts 344°
2026-05-08 06:32 19.23576 73.18240 2883 ft 187 kts 324°
2026-05-08 06:32 19.24271 73.17116 2886 ft 188 kts 279°
2026-05-08 06:33 19.24024 73.15766 2901 ft 193 kts 241°
2026-05-08 06:33 19.23072 73.14758 2899 ft 197 kts 212°
2026-05-08 06:33 19.21939 73.14014 2896 ft 197 kts 221°
2026-05-08 06:33 19.20928 73.13103 2892 ft 196 kts 222°
2026-05-08 06:34 19.19863 73.12190 2892 ft 196 kts 220°
2026-05-08 06:34 19.18809 73.11309 2892 ft 196 kts 220°
2026-05-08 06:34 19.17740 73.10424 2892 ft 196 kts 220°
2026-05-08 06:34 19.16672 73.09543 2892 ft 196 kts 220°
2026-05-08 06:35 19.15622 73.08677 2892 ft 196 kts 220°
2026-05-08 06:35 19.14586 73.07823 2892 ft 196 kts 220°
2026-05-08 06:35 19.13528 73.06951 2893 ft 196 kts 220°
2026-05-08 06:35 19.12455 73.06068 2892 ft 196 kts 220°
2026-05-08 06:36 19.11383 73.05186 2893 ft 196 kts 220°
2026-05-08 06:36 19.10330 73.04319 2892 ft 196 kts 220°
2026-05-08 06:36 19.09346 73.03329 2879 ft 194 kts 242°
2026-05-08 06:36 19.09113 73.01991 2702 ft 191 kts 286°
2026-05-08 06:37 19.09851 73.00928 2529 ft 185 kts 332°
2026-05-08 06:37 19.11087 73.00616 2534 ft 185 kts 353°
2026-05-08 06:37 19.12373 73.00513 2530 ft 187 kts 356°
2026-05-08 06:37 19.13547 73.00507 2527 ft 188 kts
2026-05-08 06:38 19.14634 73.00581 2470 ft 189 kts
2026-05-08 06:38 19.17241 73.01083 2211 ft 189 kts 13°
2026-05-08 06:38 19.18518 73.01511 2023 ft 190 kts 18°
2026-05-08 06:39 19.20691 73.01542 2013 ft 185 kts 342°
2026-05-08 06:39 19.22002 73.01164 2014 ft 185 kts 344°
2026-05-08 06:39 19.23190 73.00830 2014 ft 185 kts 343°
2026-05-08 06:40 19.24441 73.00478 2059 ft 183 kts 344°